{"data":{"norad_id":63050,"intl_designator":"2025-034X","name":"STARLINK-32816","alt_names":[],"object_type":"PAYLOAD","status":"ACTIVE","operator":null,"country":"US","launch_date":"2025-02-18","launch_site_code":"AFETR","launch_vehicle":null,"mission":null,"orbit_class":"UNKNOWN","rcs_meters":null,"size_class":null,"mass_kg":null,"dimensions":null,"purposes":["comms"],"wikipedia_slug":null,"has_3d_model":false,"image_url":null,"decayed_at":null,"tle_current":{"epoch":"2026-05-24T20:19:22.872000Z","epoch_age_seconds":91576,"freshness":"FRESH","line1":"1 63050U 25034X   26144.84679250  .00029152  00000+0  87042-3 0  9998","line2":"2 63050  53.1579 276.6784 0000629  85.2962 274.8113 15.34405382 70575","mean_motion":15.34405382,"eccentricity":6.29e-5,"inclination_deg":53.1579,"raan_deg":276.6784,"arg_perigee_deg":85.2962,"mean_anomaly_deg":274.8113,"bstar":0.00087042,"rev_number":7057,"period_min":93.847428905851,"perigee_km":462.25695597072,"apogee_km":463.11753166059,"semimajor_km":6840.8242438157,"source":"CELESTRAK","updated_at":"2026-05-25T13:38:19.870371Z"}}}